Overview Statistics Trail Chart Weather Telemetry Raw packets
 

This is the latest recevied weather packets stored in our database for station/object LU2DKV-10. If no packets are shown the sender has not sent any weather packets the latest 10 day(s).

<< 11 12 13 14 15 16 17 >>
Time Temp. Humidity Pressure Rain* Wind** Luminosity Snow
1788053121 13.89° C 80% 1016 hPa - - 0 W/m² -
1788051294 13.89° C 76% 1016 hPa - - 0 W/m² -
1788049465 13.89° C 65% 1016 hPa - - 0 W/m² -
1788047642 14.44° C 59% 1016 hPa - - 0 W/m² -
1788045821 14.44° C 58% 1016 hPa - - 0 W/m² -
1788043998 15° C 55% 1015 hPa - - 0 W/m² -
1788042173 15.56° C 52% 1015 hPa - - 0 W/m² -
1788040349 15.56° C 51% 1015 hPa - - 0 W/m² -
1788038527 16.11° C 50% 1015 hPa - - 0 W/m² -
1788036706 17.22° C 49% 1014 hPa - - 0 W/m² -
1788034878 17.22° C 44% 1014 hPa - - 0 W/m² -
1788033059 17.78° C 44% 1014 hPa - - 0 W/m² -
1788031232 17.78° C 45% 1014 hPa - - 0 W/m² -
1788029408 18.33° C 45% 1014 hPa - - 0 W/m² -
1788027585 18.33° C 48% 1014 hPa - - 0 W/m² -
1788025762 18.89° C 49% 1014 hPa - - 0 W/m² -
1788023941 18.89° C 51% 1014 hPa - - 0 W/m² -
1788022115 18.89° C 47% 1014 hPa - - 0 W/m² -
1788020291 18.33° C 53% 1014 hPa - - 0 W/m² -
1788018470 17.78° C 52% 1015 hPa - - 0 W/m² -
1788016649 17.78° C 52% 1015 hPa - - 0 W/m² -
1788014824 17.22° C 50% 1015 hPa - - 0 W/m² -
1788013003 16.67° C 50% 1015 hPa - - 0 W/m² -
1788011179 16.11° C 56% 1015 hPa - - 0 W/m² -
1788009356 15° C 61% 1015 hPa - - 0 W/m² -

* Rain since midnight (hover to see other rain measurements)
** Current wind speed in m/s (hover to see current wind gust speed)